Theta_e
299 300 299 299 299 299 300 301 303 304 304 306 309 310 311 307 308 305 304 303 303 303
298 298 299 299 299 300 301 302 303 304 304 305 309 310 310 308 310 307 303 303 303 304
298 299 299 298 299 300 301 302 303 304 305 306 308 310 310 308 309 308 305 303 303 303
297 298 299 299 299 300 300 301 302 304 305 305 306 308 309 309 309 309 306 304 303 304
297 298 298 298 299 299 299 300 302 303 304 305 307 309 309 307 307 308 306 305 304 304
296 297 297 298 299 299 299 300 301 302 303 304 308 308 308 307 307 308 309 307 306 303
295 297 298 298 298 298 299 299 300 301 302 304 308 308 308 304 306 307 308 308 307 305
295 296 296 297 297 298 298 299 300 300 301 303 306 307 307 304 304 306 307 307 306 305
295 296 296 296 296 297 297 299 300 300 300 302 304 299 299 302 303 303 305 304 303 301
295 295 296 296 296 296 297 298 299 299 300 300 301 295 297 296 303 303 303 302 300 297
294 294 294 295 296 296 297 297 298 298 299 299 300 294 296 294 303 303 303 302 300 298
294 293 293 294 294 295 296 295 297 298 299 298 298 293 295 298 302 301 301 302 302 299
294 294 294 294 294 292 294 293 294 295 297 293 297 293 294 298 299 299 299 300 300 290
293 293 294 293 290 292 291 290 290 291 292 293 294 294 293 296 297 297 291 291 291 291
Wind_Speed
8 6 5 7 5 4 4 4 5 5 4 4 4 3 3 2 3 3 4 6 5 5
7 8 7 7 5 5 4 4 5 5 5 3 3 4 3 2 1 4 4 5 5 7
9 7 7 6 7 7 6 6 6 5 5 5 4 4 4 3 2 4 3 3 6 5
8 7 7 7 6 6 6 7 6 6 5 5 5 4 4 3 4 4 5 4 5 6
8 7 8 7 7 7 7 6 6 6 5 5 5 5 5 4 3 4 6 7 6 6
7 8 8 7 7 7 6 6 6 6 6 5 5 5 4 5 5 4 4 6 7 6
9 9 8 7 7 7 6 7 6 6 6 6 5 5 5 5 5 4 4 4 5 7
8 7 7 7 7 7 7 6 6 6 5 5 5 4 5 5 5 5 5 4 4 5
9 9 9 7 8 7 7 6 6 6 6 6 3 7 8 7 5 5 5 5 4 4
11 11 10 9 9 9 8 6 6 6 6 6 5 7 7 8 5 5 4 4 5 4
12 11 9 10 11 9 8 8 7 6 6 5 5 9 7 8 5 5 5 6 6 6
13 12 12 12 11 9 7 6 7 6 6 7 5 8 8 7 5 4 5 5 6 6
13 13 13 12 10 5 6 6 5 6 6 6 6 8 9 6 3 4 4 4 5 8
12 13 13 10 5 7 6 6 6 6 5 7 6 6 10 9 4 4 3 3 3 3
Wind_Direction
167 170 167 169 160 164 162 161 163 155 156 163 189 129 101 15 58 82 82 100 90 95
167 159 167 172 157 160 153 156 158 157 156 160 150 137 127 96 107 92 99 104 105 109
173 169 159 157 169 162 153 149 153 155 160 160 148 150 141 143 156 111 113 110 113 109
165 166 159 164 164 164 145 151 158 161 162 155 148 161 143 162 159 133 120 117 116 107
157 155 161 161 160 156 155 156 159 164 160 164 166 156 151 156 172 158 137 146 127 129
156 160 165 161 157 158 154 159 159 160 164 175 169 154 158 158 165 181 153 150 154 153
172 174 168 159 155 155 161 159 162 166 173 178 165 159 150 152 179 170 158 161 159 154
168 157 150 155 159 159 158 169 163 158 173 182 166 166 155 159 176 169 158 165 166 154
161 161 164 158 161 158 160 167 161 172 168 173 182 169 170 157 166 172 160 163 166 156
165 169 171 165 161 167 171 160 172 175 168 176 185 169 183 170 159 161 167 158 153 139
170 173 163 165 173 168 168 172 168 173 172 169 189 180 172 167 160 166 173 170 169 163
173 170 170 175 176 173 163 170 172 168 169 169 182 175 167 164 169 175 186 179 173 169
175 177 180 178 174 152 163 165 149 164 167 165 164 172 169 175 161 180 185 184 180 185
174 173 177 168 155 150 138 142 156 160 163 161 157 167 178 173 165 181 168 191 199 204